Home   Weather   Yorkton   Past weeks
Flag for Canada

Past Weather in Yorkton, Saskatchewan, Canada — Yesterday and Last 2 Weeks

Now
46 °F

Sunny.


Feels Like: 42 °F
Forecast: 67 / 44 °F
Wind: 9 mph from South

Location: Yorkton

Current Time: May 24, 2019 at 7:12:05 am

Latest Report: May 24, 2019 at 6:00 am


Visibility: 9 mi

Pressure: 29.92 "Hg (28.14 "Hg at 505m altitude)

Humidity: 66%

Dew Point: 36 °F

Location of YorktonLocation

Past Weather in Yorkton — Graph

°F

Yorkton Temperature Yesterday

Maximum temperature yesterday: 73 °F (at 5:00 pm)
Minimum temperature yesterday: 39 °F (at 5:00 am)
Average temperature yesterday: 57 °F

High & Low Weather Summary for the Past Weeks

 TemperatureHumidityPressure
High73 °F (May 23, 5:00 pm)100% (May 10, 11:00 pm)30.38 "Hg (May 10, 11:00 pm)
Low23 °F (May 9, 6:00 am)15% (May 13, 5:00 pm)29.62 "Hg (May 15, 3:27 pm)
Average50 °F52%30.00 "Hg
* Reported May 9 6:00 am — May 24 6:00 am, Yorkton. Weather by CustomWeather, © 2019

Note: Actual official high and low records may vary slightly from our data, if they occured in-between our weather recording intervals... More about our weather records

Advertising

Yorkton Weather History for the Previous 24 Hours

Scroll right to see more
 ConditionsComfort  
Time TempWeatherWind HumidityBarometerVisibility
6:00 am
Fri, May 24
46 °FSunny.9 mph66%29.92 "Hg9 mi
5:00 am45 °FSunny.10 mph71%29.93 "Hg9 mi
4:00 am46 °FClear.8 mph66%29.94 "Hg9 mi
3:00 am50 °FClear.7 mph58%29.94 "Hg9 mi
2:00 am52 °FClear.10 mph54%29.96 "Hg9 mi
1:00 am52 °FClear.7 mph58%29.97 "Hg9 mi
12:00 am54 °FClear.7 mph51%29.99 "Hg9 mi
11:19 pm
Thu, May 23
50 °FClear.6 mph54%30.00 "Hg6 mi
11:11 pm50 °FClear.8 mph54%30.01 "Hg5 mi
10:00 pm59 °FPassing clouds.8 mph39%30.02 "Hg9 mi
9:00 pm63 °FClear.7 mph32%30.03 "Hg9 mi
8:00 pm68 °FPassing clouds.7 mph26%30.02 "Hg9 mi
7:00 pm72 °FPartly sunny.8 mph23%30.03 "Hg9 mi
6:00 pm72 °FScattered clouds.7 mph23%30.04 "Hg9 mi
5:00 pm73 °FPartly sunny.3 mph20%30.05 "Hg9 mi
4:00 pm72 °FSunny.6 mph23%30.06 "Hg9 mi
3:00 pm72 °FSunny.10 mph23%30.07 "Hg9 mi
2:00 pm70 °FSunny.5 mph25%30.10 "Hg9 mi
1:00 pm70 °FSunny.8 mph29%30.12 "Hg9 mi
12:00 pm68 °FSunny.3 mph30%30.14 "Hg9 mi
11:00 am64 °FSunny.3 mph34%30.15 "Hg9 mi
10:00 am61 °FSunny.2 mph42%30.15 "Hg9 mi
9:00 am57 °FSunny.2 mph55%30.15 "Hg9 mi
8:00 am50 °FSunny.2 mph71%30.14 "Hg9 mi
7:00 am45 °FSunny.6 mph81%30.14 "Hg9 mi
Weather by CustomWeather, © 2019

See weather overview